Estació municipal de Monistrol de Calders (Moianès, P.N.de Sant Llorenç del Munt i l'Obac)

Consulta les dades en temps real de l'estació municipal de Monistrol de Calders





Hora UTC 13:40
Temperatura 19.6 ºC
Humitat 44.0 %
Pressió 1009.9 hPa
Pluja 0.0 mm
Velocitat vent 4.8 km/h
Direcció vent WSW

Webcam

Dades diàries 2026-05-06



Hora UTC (hivern +1h; estiu +2h)
Temperatura (ºC) Humitat (%) Pressió (hPa) Velocitat vent (km/h) Precipitació (mm)
Hora UTC Aire Humitat Pressió Vel. Dir. Vel. Max Dir. Intent. màx 5 min.
00:05 7.9 94.0 1010.3 3.2 SSE 3.2 0.0
00:10 7.7 94.0 1010.3 3.2 SSE 8.0 0.0
00:15 7.6 94.0 1010.3 1.6 S 8.0 0.0
00:20 7.5 94.0 1010.3 1.6 SSE 4.8 0.0
00:25 7.4 94.0 1010.3 1.6 S 4.8 0.0
00:30 7.3 94.0 1010.4 1.6 S 4.8 0.0
00:35 7.3 94.0 1010.4 3.2 S 4.8 0.0
00:40 7.1 94.0 1010.4 3.2 ESE 4.8 0.0
00:45 7.0 94.0 1010.2 3.2 SSE 4.8 0.0
00:50 6.9 94.0 1010.3 1.6 SSE 3.2 0.0
00:55 6.9 95.0 1010.3 1.6 SE 3.2 0.0
01:00 6.8 94.0 1010.2 1.6 ESE 3.2 0.0
01:05 6.8 94.0 1010.2 0.0 ESE 3.2 0.0
01:10 6.7 94.0 1010.1 1.6 ESE 3.2 0.0
01:15 6.6 94.0 1010.1 1.6 SE 3.2 0.0
01:20 6.6 95.0 1010.0 0.0 SE 3.2 0.0
01:25 6.5 95.0 1010.0 0.0 SE 3.2 0.0
01:30 6.4 94.0 1010.1 3.2 SE 3.2 0.0
01:35 6.2 94.0 1010.0 3.2 SE 4.8 0.0
01:40 6.2 95.0 1010.1 0.0 SE 4.8 0.0
01:45 6.1 94.0 1010.1 1.6 SE 3.2 0.0
01:50 6.1 95.0 1010.1 1.6 ESE 3.2 0.0
01:55 6.1 95.0 1010.0 0.0 ESE 3.2 0.0
02:00 6.0 95.0 1010.0 0.0 ESE 3.2 0.0
02:05 5.9 95.0 1010.1 0.0 ESE 1.6 0.0
02:10 5.9 95.0 1010.1 0.0 ESE 0.0 0.0
02:15 5.9 95.0 1010.1 0.0 ESE 1.6 0.0
02:20 5.8 95.0 1010.1 1.6 ESE 1.6 0.0
02:25 5.8 95.0 1010.2 0.0 ESE 3.2 0.0
02:30 5.7 95.0 1010.2 0.0 SSE 3.2 0.0
02:35 5.6 95.0 1010.2 0.0 SE 3.2 0.0
02:40 5.6 95.0 1010.2 0.0 SE 1.6 0.0
02:45 5.6 95.0 1010.2 0.0 SE 0.0 0.0
02:50 5.6 95.0 1010.1 0.0 SE 1.6 0.0
02:55 5.4 95.0 1010.1 0.0 SE 1.6 0.0
03:00 5.4 95.0 1010.1 0.0 SE 1.6 0.0
03:05 5.3 95.0 1010.1 1.6 ESE 3.2 0.0
03:10 5.3 95.0 1010.1 3.2 SSE 3.2 0.0
03:15 5.3 95.0 1010.1 1.6 SE 3.2 0.0
03:20 5.2 95.0 1010.1 3.2 SE 3.2 0.0
03:25 5.1 94.0 1010.1 1.6 SSE 8.0 0.0
03:30 5.0 95.0 1010.1 3.2 SE 8.0 0.0
03:35 5.0 95.0 1010.2 3.2 S 4.8 0.0
03:40 5.0 95.0 1010.2 1.6 SSE 4.8 0.0
03:45 5.0 95.0 1010.2 3.2 SSE 3.2 0.0
03:50 4.9 95.0 1010.3 1.6 SSE 4.8 0.0
03:55 4.7 95.0 1010.4 4.8 SSE 4.8 0.0
04:00 4.6 95.0 1010.4 1.6 SSE 4.8 0.0
04:05 4.6 95.0 1010.4 4.8 S 4.8 0.0
04:10 4.7 95.0 1010.3 1.6 SSW 4.8 0.0
04:15 4.7 95.0 1010.4 0.0 SSW 3.2 0.0
04:20 4.6 95.0 1010.2 3.2 S 3.2 0.0
04:25 4.6 95.0 1010.3 3.2 SSE 4.8 0.0
04:30 4.6 95.0 1010.3 1.6 SSE 3.2 0.0
04:35 4.6 95.0 1010.4 1.6 SSE 3.2 0.0
04:40 4.5 95.0 1010.5 3.2 SSE 4.8 0.0
04:45 4.3 95.0 1010.5 8.0 SSE 9.7 0.0
04:50 4.4 95.0 1010.5 3.2 SSE 8.0 0.0
04:55 4.4 95.0 1010.4 3.2 SSE 8.0 0.0
05:00 4.4 95.0 1010.6 0.0 SSE 4.8 0.0
05:05 4.4 95.0 1010.7 0.0 SSE 3.2 0.0
05:10 4.4 95.0 1010.8 0.0 SSE 1.6 0.0
05:15 4.5 95.0 1010.8 1.6 SSE 1.6 0.0
05:20 4.5 95.0 1010.8 0.0 S 3.2 0.0
05:25 4.5 95.0 1010.9 3.2 SE 3.2 0.0
05:30 4.7 95.0 1010.9 3.2 SE 6.4 0.0
05:35 4.7 95.0 1011.0 4.8 S 6.4 0.0
05:40 4.9 96.0 1011.1 3.2 SE 8.0 0.0
05:45 5.0 96.0 1010.9 3.2 SSE 6.4 0.0
05:50 5.0 95.0 1011.0 3.2 SSE 4.8 0.0
05:55 5.1 95.0 1011.1 6.4 SSE 8.0 0.0
06:00 5.1 95.0 1011.2 3.2 SSE 6.4 0.0
06:05 5.2 96.0 1011.2 1.6 SSE 6.4 0.0
06:10 5.4 96.0 1011.2 1.6 SSE 3.2 0.0
06:15 5.8 96.0 1011.3 1.6 SE 3.2 0.0
06:20 6.2 96.0 1011.3 1.6 SSE 3.2 0.0
06:25 6.4 96.0 1011.2 0.0 SSE 3.2 0.0
06:30 6.8 96.0 1011.3 1.6 ESE 3.2 0.0
06:35 7.2 96.0 1011.4 0.0 ESE 4.8 0.0
06:40 7.6 96.0 1011.4 0.0 ESE 4.8 0.0
06:45 7.9 97.0 1011.4 1.6 E 3.2 0.0
06:50 8.2 96.0 1011.4 0.0 ESE 3.2 0.0
06:55 8.7 97.0 1011.4 1.6 E 4.8 0.0
07:00 8.8 96.0 1011.4 0.0 ENE 4.8 0.0
07:05 9.0 96.0 1011.4 1.6 NE 3.2 0.0
07:10 8.9 95.0 1011.4 1.6 NE 4.8 0.0
07:15 9.4 96.0 1011.4 3.2 NNW 4.8 0.0
07:20 9.7 96.0 1011.3 3.2 NNW 4.8 0.0
07:25 9.8 95.0 1011.3 1.6 NW 4.8 0.0
07:30 10.0 94.0 1011.3 0.0 NE 4.8 0.0
07:35 10.3 95.0 1011.4 1.6 WNW 6.4 0.0
07:40 10.4 93.0 1011.3 3.2 W 6.4 0.0
07:45 10.3 92.0 1011.4 1.6 S 4.8 0.0
07:50 10.3 91.0 1011.4 1.6 WSW 3.2 0.0
07:55 10.4 93.0 1011.4 1.6 WNW 4.8 0.0
08:00 10.6 91.0 1011.4 3.2 N 6.4 0.0
08:05 10.7 89.0 1011.4 3.2 WNW 8.0 0.0
08:10 10.9 90.0 1011.4 1.6 NNW 8.0 0.0
08:15 11.3 89.0 1011.4 1.6 NW 4.8 0.0
08:20 11.5 88.0 1011.4 1.6 NE 9.7 0.0
08:25 11.8 87.0 1011.5 3.2 NW 9.7 0.0
08:30 11.8 85.0 1011.4 3.2 NW 6.4 0.0
08:35 11.8 84.0 1011.3 1.6 NW 8.0 0.0
08:40 12.2 83.0 1011.4 1.6 WNW 8.0 0.0
08:45 12.4 82.0 1011.4 1.6 N 8.0 0.0
08:50 12.6 78.0 1011.4 3.2 ENE 8.0 0.0
08:55 12.8 80.0 1011.5 1.6 NNW 8.0 0.0
09:00 12.8 77.0 1011.4 1.6 W 8.0 0.0
09:05 13.1 77.0 1011.4 1.6 NW 4.8 0.0
09:10 13.6 77.0 1011.5 1.6 WNW 4.8 0.0
09:15 13.8 75.0 1011.5 1.6 WNW 4.8 0.0
09:20 13.9 70.0 1011.5 1.6 NE 6.4 0.0
09:25 13.8 73.0 1011.5 0.0 WNW 8.0 0.0
09:30 13.8 68.0 1011.4 3.2 ENE 9.7 0.0
09:35 13.9 72.0 1011.5 3.2 WNW 9.7 0.0
09:40 14.3 68.0 1011.5 0.0 E 6.4 0.0
09:45 14.7 73.0 1011.6 3.2 NNW 6.4 0.0
09:50 15.1 71.0 1011.5 0.0 NNW 6.4 0.0
09:55 15.3 69.0 1011.4 3.2 NW 9.7 0.0
10:00 15.3 64.0 1011.4 3.2 W 6.4 0.0
10:05 15.3 66.0 1011.4 3.2 NW 8.0 0.0
10:10 15.2 63.0 1011.2 3.2 ENE 6.4 0.0
10:15 15.2 64.0 1011.2 0.0 NE 9.7 0.0
10:20 15.4 66.0 1011.2 0.0 NW 6.4 0.0
10:25 15.6 64.0 1011.2 3.2 SSW 6.4 0.0
10:30 15.9 66.0 1011.1 4.8 NNW 6.4 0.0
10:35 16.0 62.0 1011.1 0.0 W 6.4 0.0
10:40 16.3 69.0 1011.0 3.2 WNW 8.0 0.0
10:45 16.2 58.0 1011.0 6.4 ESE 8.0 0.0
10:50 16.2 61.0 1011.0 0.0 ESE 9.7 0.0
10:55 16.7 64.0 1010.9 1.6 S 8.0 0.0
11:00 17.1 57.0 1011.0 3.2 N 8.0 0.0
11:05 16.7 56.0 1011.0 6.4 NE 8.0 0.0
11:10 16.8 63.0 1010.9 1.6 W 9.7 0.0
11:15 16.8 57.0 1011.0 4.8 SW 9.7 0.0
11:20 16.8 56.0 1010.9 1.6 ESE 11.3 0.0
11:25 17.1 60.0 1010.8 6.4 WSW 12.9 0.0
11:30 17.3 58.0 1010.8 4.8 W 12.9 0.0
11:35 17.6 57.0 1010.6 3.2 NW 14.5 0.0
11:40 17.8 60.0 1010.6 6.4 W 14.5 0.0
11:45 17.9 56.0 1010.6 4.8 W 12.9 0.0
11:50 18.1 57.0 1010.5 4.8 SW 12.9 0.0
11:55 18.5 57.0 1010.4 4.8 W 9.7 0.0
12:00 18.8 54.0 1010.4 4.8 WSW 20.9 0.0
12:05 18.9 58.0 1010.4 6.4 NW 20.9 0.0
12:10 18.9 54.0 1010.4 9.7 ENE 14.5 0.0
12:15 18.7 55.0 1010.5 0.0 WNW 14.5 0.0
12:20 18.4 50.0 1010.5 9.7 S 16.1 0.0
12:25 18.1 54.0 1010.5 1.6 S 16.1 0.0
12:30 18.3 54.0 1010.4 3.2 W 16.1 0.0
12:35 18.4 53.0 1010.4 1.6 SW 16.1 0.0
12:40 18.5 53.0 1010.3 1.6 W 16.1 0.0
12:45 18.8 53.0 1010.3 12.9 WSW 12.9 0.0
12:50 19.1 52.0 1010.2 12.9 WNW 16.1 0.0
12:55 19.2 52.0 1010.2 3.2 NW 16.1 0.0
13:00 19.1 48.0 1010.3 0.0 SW 11.3 0.0
13:05 19.1 51.0 1010.3 1.6 W 11.3 0.0
13:10 18.7 46.0 1010.2 3.2 SSW 16.1 0.0
13:15 18.4 49.0 1010.2 6.4 W 12.9 0.0
13:20 18.8 48.0 1010.0 6.4 W 16.1 0.0
13:25 19.1 44.0 1010.0 3.2 NW 14.5 0.0
13:30 19.2 45.0 1010.0 6.4 SW 14.5 0.0
13:35 19.3 45.0 1009.9 6.4 WNW 14.5 0.0
13:40 19.6 44.0 1009.9 4.8 WSW 16.1 0.0
Màxima 19.6 97.0 1011.6 12.9 WNW 20.9 0.0
Mínima 4.3 44.0 1009.9
Total 0.0